Temp
14 14 13 13 13 13 12 12 12 12 12 12 12 12 11 11 11 12 12 11 10 9
13 13 13 13 12 12 11 11 11 11 11 11 10 10 10 10 10 10 10 10 9 9
13 12 12 11 11 11 11 11 11 10 10 10 10 10 9 9 9 9 9 9 8 8
12 11 11 11 10 10 9 9 8 8 8 8 8 8 8 9 9 8 8 9 8 8
10 10 10 9 8 8 7 7 7 6 6 7 7 7 7 7 8 8 8 8 7 7
9 9 8 7 7 7 6 5 5 5 5 5 5 5 5 5 5 5 5 5 5 6
8 7 6 5 5 5 4 4 4 4 4 4 4 4 4 4 4 4 4 4 4 5
6 5 4 4 4 3 3 3 3 3 3 3 3 3 2 3 3 3 3 4 4 3
4 4 3 3 2 2 1 1 2 2 2 2 2 2 2 2 2 2 2 2 2 2
3 3 2 2 1 1 0 0 0 2 2 2 2 1 2 1 1 1 2 2 2 2
2 1 1 1 1 1 1 0 -0 1 2 2 2 1 0 -0 -0 -1 -1 -1 -1 -0
1 1 1 0 0 1 1 1 0 1 1 1 1 0 -0 -0 -1 -1 -1 -1 -1 -1
-0 -1 -1 -1 -1 -0 -0 -0 -0 -0 -0 -1 -1 -0 -1 -1 -2 -2 -2 -2 -2 -2
-1 -2 -2 -2 -2 -2 -2 -1 -1 -1 -2 -1 -0 -1 -1 -2 -2 -2 -2 -3 -3 -3
Height
807 809 810 811 811 812 812 811 810 810 810 808 807 805 804 802 800 798 796 794 792 790
806 808 808 809 810 809 808 807 806 804 803 803 801 800 799 797 795 793 790 786 784 783
804 805 807 808 806 806 804 803 802 800 799 798 797 796 793 792 789 786 783 781 780 777
802 804 804 803 803 802 802 800 799 798 797 796 794 791 789 786 783 780 777 775 772 769
801 801 800 800 800 801 800 799 798 796 794 791 789 787 784 781 779 776 772 769 767 765
798 797 797 797 797 797 797 797 795 792 790 787 785 783 781 778 775 772 769 766 763 760
796 795 796 797 796 795 794 793 790 788 786 784 783 781 779 777 774 770 767 764 761 758
794 794 795 793 792 791 791 789 786 785 784 783 781 778 776 773 771 766 761 759 756 753
792 791 790 789 789 789 788 786 784 783 782 780 777 775 772 770 765 762 758 753 751 748
786 786 787 788 788 788 786 783 781 779 777 775 775 774 770 767 763 759 754 751 746 742
784 785 786 788 788 787 786 784 780 776 774 773 772 769 764 761 758 755 750 747 742 737
783 783 786 787 787 784 781 778 775 773 772 769 767 765 761 756 752 748 746 742 737 733
781 783 785 785 782 778 776 774 772 771 769 767 765 763 759 754 749 742 740 735 731 727
782 784 784 782 779 776 773 771 769 767 767 765 763 758 755 752 746 741 736 730 724 721
Wind_Speed
10 8 6 3 2 2 4 6 9 11 13 15 16 17 17 18 18 19 19 20 19 18
9 6 3 2 3 4 7 9 10 12 14 16 18 20 22 24 25 26 27 26 24 20
8 6 3 2 5 7 9 11 13 14 16 17 18 19 20 22 24 27 29 30 28 26
7 4 3 5 7 7 8 11 13 14 15 15 17 19 20 22 24 25 27 29 28 30
6 5 5 6 7 9 13 15 15 14 16 19 20 20 21 24 25 25 26 27 25 26
6 4 6 7 11 14 16 16 13 17 21 20 20 20 20 20 22 23 22 21 21 21
5 5 7 10 13 15 15 16 17 17 18 18 19 19 19 21 23 23 24 25 25 26
3 5 8 11 13 13 15 14 15 16 15 15 18 20 20 20 23 26 31 31 30 30
5 8 11 13 14 13 15 13 13 14 13 17 20 20 19 20 24 25 27 30 31 33
8 11 13 13 13 13 14 12 11 11 16 18 19 20 24 26 25 27 27 29 31 33
7 7 9 9 9 9 10 11 11 16 17 19 22 23 26 24 25 24 23 25 27 30
4 6 7 8 10 11 13 16 17 18 19 21 22 25 25 24 25 24 25 25 26 27
4 5 7 10 11 12 13 16 18 16 19 20 21 24 25 25 26 24 26 24 24 26
3 6 6 9 11 13 16 18 19 20 21 19 23 24 25 24 25 25 26 26 26 24
Wind_Direction
114 113 114 95 39 327 321 319 321 313 307 310 306 300 299 300 300 303 302 293 291 291
119 115 97 53 13 354 339 333 327 319 314 311 309 309 307 303 299 297 295 290 288 278
123 114 95 27 3 351 341 330 324 321 322 322 321 319 314 308 302 298 299 297 289 281
126 105 66 30 18 8 359 354 352 350 347 340 335 333 328 321 318 313 308 303 297 286
114 80 42 35 12 359 349 342 338 333 332 330 328 324 323 320 316 313 308 304 303 293
85 61 36 7 350 340 335 336 337 332 336 334 331 327 321 318 320 316 313 310 305 299
79 31 2 345 340 339 340 338 337 339 340 338 334 328 329 325 319 315 316 315 314 313
69 4 345 347 351 348 342 344 345 343 340 339 338 337 331 325 324 319 315 312 310 311
16 7 7 2 358 350 346 343 342 341 340 343 345 343 338 330 322 319 316 316 313 313
31 27 14 1 354 349 345 340 339 352 352 347 339 339 334 330 322 314 308 308 309 311
36 24 6 356 346 336 338 344 335 342 342 338 336 333 335 335 328 319 311 310 309 305
33 17 348 329 330 341 340 343 344 337 332 333 330 332 331 332 326 319 314 314 314 307
10 340 316 318 333 340 342 338 337 328 326 326 328 337 333 332 326 320 316 312 309 307
304 293 299 325 338 343 348 347 339 331 327 321 334 334 332 330 326 319 315 315 312 309